Location: Alladorf
(49.9620°N, 11.3790°E)
Time: 20:44:44
(UTC+00:00)

SL-4 R/B - Pass Details

Date: 29 November 2020
Orbit: 428 x 664 km, 51.6° (Epoch: 25 January)

Event Time Altitude Azimuth Distance (km) Brightness Sun altitude
Exits shadow 04:15:21 58° 50° (NE) 597 2.3 -23.8°
Drops below altitude 10° 04:18:30 10° 77° (ENE) 1,667 5.4 -23.3°
Sets 04:20:35 0° 80° (E) 2,511 6.7 -23.0°
